Starlink 2440

operational
NORAD ID: 48105 Int'l Des: 2021-027 Owner: SPXS Country: US Constellation: starlink
LEOCIRCULARSTARLINK_TYPE

About Starlink 2440

Description loading...

Live Position

Loading 3D Globe...

Upcoming Passes

Altitude History

Altitude vs Time

uPlot chart will show altitude changes over time

Two-Line Element Set

1 48105U 21027P 25296.46868407 .00002003 00000-0 15323-3 0 9999
2 48105 53.0561 357.6251 0001343 95.0455 265.0687 15.06416137252713
Epoch: Oct 23, 2025 • Age: 30 hours

Current Status

Altitude 564.5 km
Velocity 7.58 km/s
Sub-Earth Point -47.90°S, 4.77°E
Launch Date Apr 7, 2021
Age 4.5 years
Type internet

Technical Details

Classification Payload
Mass 260.00 kg
Dry Mass 248.00 kg
Total Mass 260.00 kg
Length 0.20 m
Diameter 2.80 m
Span 9.00 m
Shape Box + pan
Manufacturer SPXS
Bus Type Starlink
Phase Status In Orbit
Owner/State SPXS/US

Large Constellations

Loading constellations...